STARLINK-36148

Last updated on Fri Dec 19 2025 00:02:09 GMT+0000 (Coordinated Universal Time)

1 67005U 25293C 25351.83335648 -.00947260 28824-3 -21761-2 0 9991 2 67005 69.9939 309.0351 0004146 266.6812 113.3161 15.97088495 2387
UTC large
Height (km)
Speed (km/s)
/
Latitude / Longitude
Inclination (degrees)
Orbital Period (minutes)
Azimuth
Elevation
Range (km)
Doppler Factor

Next 0 passes for location: London (51.5072 / 0.1276)

Sorry there are no passes over London.